EW7603 Weather Reports


Display with metric or nautical units.
time (UTC)temp
F
wind
direction
speed
MPH
gust
MPH
rain 1hr
in
rain 24hr
in
rain mn
in
humidity
%
barometer
mb
20260503184507 59 182 13.0 0.0 0.00 0.00 0.00 39 1010.3
20260503183013 59 232 14.0 0.0 0.00 0.00 0.00 36 1010.3
20260503181510 59 233 10.0 0.0 0.00 0.00 0.00 36 1010.2
20260503180004 61 197 13.0 0.0 0.00 0.00 0.00 32 1009.9
20260503174503 64 207 10.0 0.0 0.00 0.00 0.00 28 1010.1
20260503173003 62 239 11.0 0.0 0.00 0.00 0.00 30 1010.4
20260503171559 63 211 11.0 0.0 0.00 0.00 0.00 33 1010.4
20260503170104 63 240 12.0 0.0 0.00 0.00 0.00 31 1010.6
20260503100113 34 213 2.0 0.0 0.00 0.00 0.00 71 1013.9
20260503081513 35 224 3.0 0.0 0.00 0.00 0.00 69 1014.1
20260503071619 34 186 3.0 0.0 0.00 0.00 0.00 72 1014.2
20260503070106 33 153 2.0 0.0 0.00 0.00 0.00 75 1014.3
20260503060113 31 206 1.0 0.0 0.00 0.00 0.00 75 1015.2
20260503054551 30 206 2.0 0.0 0.00 0.00 0.00 73 1015.3
20260503053048 31 250 0.0 0.0 0.00 0.00 0.00 72 1015.4
20260503051547 31 253 0.0 0.0 0.00 0.00 0.00 72 1015.6
20260503050043 31 253 0.0 0.0 0.00 0.00 0.00 71 1015.6
20260503044610 31 253 0.0 0.0 0.00 0.00 0.00 70 1015.8
20260503043041 31 253 0.0 0.0 0.00 0.00 0.00 69 1015.8
20260503041540 31 254 1.0 0.0 0.00 0.00 0.00 68 1015.9
20260503040035 32 287 0.0 0.0 0.00 0.00 0.00 68 1016.0
20260503034535 32 287 0.0 0.0 0.00 0.00 0.00 66 1015.8
20260503033037 32 287 0.0 0.0 0.00 0.00 0.00 65 1015.9
20260503031532 33 287 0.0 0.0 0.00 0.00 0.00 65 1016.1
20260503030035 33 289 0.0 0.0 0.00 0.00 0.00 62 1016.3
20260503024529 34 289 0.0 0.0 0.00 0.00 0.00 59 1016.3
20260503023030 35 289 0.0 0.0 0.00 0.00 0.00 58 1016.3
20260503021528 35 289 0.0 0.0 0.00 0.00 0.00 55 1016.2
20260503020035 36 289 0.0 0.0 0.00 0.00 0.00 53 1016.1
20260503014528 37 289 0.0 0.0 0.00 0.00 0.00 50 1016.1
20260503013027 38 289 0.0 0.0 0.00 0.00 0.00 47 1016.1
20260503011527 39 289 0.0 0.0 0.00 0.00 0.00 43 1016.2
20260503010026 40 289 0.0 0.0 0.00 0.00 0.00 42 1016.1
20260503004526 41 289 0.0 0.0 0.00 0.00 0.00 37 1016.0
20260503003032 42 289 1.0 0.0 0.00 0.00 0.00 35 1015.8
20260503001524 42 303 3.0 0.0 0.00 0.00 0.00 35 1015.9
20260503000030 43 275 3.0 0.0 0.00 0.00 0.00 33 1015.9
20260502234545 44 267 5.0 0.0 0.00 0.00 0.00 31 1015.8
20260502233023 44 274 5.0 0.0 0.00 0.00 0.00 29 1015.8
20260502231529 45 316 5.0 0.0 0.00 0.00 0.00 28 1016.0
20260502230059 45 296 5.0 0.0 0.00 0.00 0.00 27 1016.0
20260502224603 45 280 5.0 0.0 0.00 0.00 0.00 28 1016.0
20260502223105 45 330 6.0 0.0 0.00 0.00 0.00 27 1016.0
20260502221602 46 249 7.0 0.0 0.00 0.00 0.00 28 1016.1
20260502214613 47 305 8.0 0.0 0.00 0.00 0.00 27 1016.1
20260502213117 47 268 6.0 0.0 0.00 0.00 0.00 30 1015.8
20260502211555 47 313 8.0 0.0 0.00 0.00 0.00 30 1015.7
20260502210051 48 34 5.0 0.0 0.00 0.00 0.00 33 1015.8
20260502204550 48 269 6.0 0.0 0.00 0.00 0.00 31 1016.0
20260502203110 48 316 6.0 0.0 0.00 0.00 0.00 31 1016.1
20260502201549 47 305 6.0 0.0 0.00 0.00 0.00 33 1016.2
20260502200055 47 255 6.0 0.0 0.00 0.00 0.00 36 1016.3
20260502194550 46 345 6.0 0.0 0.00 0.00 0.00 38 1016.5
20260502193047 45 336 5.0 0.0 0.00 0.00 0.00 39 1016.6
20260502191548 45 238 5.0 0.0 0.00 0.00 0.00 40 1016.8
20260502190045 45 305 5.0 0.0 0.00 0.00 0.00 41 1016.8